| time (UTC) | temp C | wind direction | speed KPH | gust KPH | rain 1hr cm | rain 24hr cm | rain mn cm | humidity % | barometer mb |
| 20260507145004 | 10 | 226 | 4.8 | 12.9 | 0.00 | 0.00 | 0.00 | 58 | 992.2 |
| 20260507144004 | 10 | 248 | 4.8 | 11.3 | 0.00 | 0.00 | 0.00 | 58 | 992.1 |
| 20260507143005 | 9 | 262 | 3.2 | 11.3 | 0.00 | 0.00 | 0.00 | 62 | 992.2 |
| 20260507142005 | 9 | 255 | 1.6 | 4.8 | 0.00 | 0.00 | 0.00 | 64 | 992.2 |
| 20260507141007 | 8 | 264 | 1.6 | 9.7 | 0.00 | 0.00 | 0.00 | 65 | 992.3 |
| 20260507140005 | 8 | 310 | 0.0 | 4.8 | 0.00 | 0.00 | 0.00 | 66 | 992.3 |
| 20260507135004 | 8 | 316 | 1.6 | 4.8 | 0.00 | 0.03 | 0.00 | 68 | 992.5 |
| 20260507134004 | 7 | 303 | 1.6 | 3.2 | 0.00 | 0.03 | 0.00 | 70 | 992.5 |
| 20260507133004 | 7 | 340 | 3.2 | 8.0 | 0.00 | 0.03 | 0.00 | 71 | 992.8 |
| 20260507132004 | 7 | 334 | 1.6 | 4.8 | 0.00 | 0.03 | 0.00 | 73 | 992.7 |
| 20260507131004 | 6 | 310 | 0.0 | 4.8 | 0.00 | 0.03 | 0.00 | 72 | 992.7 |
| 20260507130005 | 7 | 319 | 1.6 | 4.8 | 0.00 | 0.03 | 0.00 | 68 | 992.6 |
| 20260507125004 | 6 | 342 | 1.6 | 4.8 | 0.00 | 0.03 | 0.00 | 71 | 992.6 |
| 20260507124005 | 5 | 314 | 3.2 | 8.0 | 0.00 | 0.03 | 0.00 | 72 | 992.8 |
| 20260507123004 | 5 | 355 | 3.2 | 8.0 | 0.00 | 0.05 | 0.00 | 76 | 992.8 |
| 20260507120006 | 4 | 313 | 1.6 | 3.2 | 0.00 | 0.08 | 0.00 | 98 | 992.8 |
| 20260507115004 | 4 | 299 | 0.0 | 1.6 | 0.00 | 0.08 | 0.00 | 99 | 993.1 |
| 20260507114005 | 4 | 286 | 0.0 | 1.6 | 0.00 | 0.08 | 0.00 | 99 | 993.1 |
| 20260507113004 | 5 | 286 | 0.0 | 0.0 | 0.00 | 0.08 | 0.00 | 99 | 993.3 |
| 20260507112006 | 5 | 285 | 0.0 | 1.6 | 0.00 | 0.10 | 0.00 | 99 | 993.0 |
| 20260507111004 | 4 | 291 | 0.0 | 0.0 | 0.00 | 0.13 | 0.00 | 99 | 992.9 |
| 20260507110004 | 4 | 292 | 0.0 | 0.0 | 0.00 | 0.13 | 0.00 | 99 | 992.6 |
| 20260507105006 | 4 | 292 | 0.0 | 0.0 | 0.00 | 0.13 | 0.00 | 99 | 992.6 |
| 20260507104004 | 4 | 292 | 0.0 | 0.0 | 0.00 | 0.15 | 0.00 | 99 | 992.2 |
| 20260507103004 | 4 | 291 | 0.0 | 0.0 | 0.00 | 0.15 | 0.00 | 99 | 992.2 |
| 20260507102006 | 4 | 288 | 0.0 | 0.0 | 0.00 | 0.15 | 0.00 | 99 | 992.1 |
| 20260507101004 | 3 | 288 | 0.0 | 0.0 | 0.00 | 0.18 | 0.00 | 99 | 992.0 |
| 20260507100004 | 3 | 288 | 0.0 | 0.0 | 0.00 | 0.18 | 0.00 | 99 | 992.2 |
| 20260507094004 | 3 | 288 | 0.0 | 0.0 | 0.00 | 0.20 | 0.00 | 99 | 992.2 |
| 20260507093004 | 3 | 288 | 0.0 | 0.0 | 0.00 | 0.23 | 0.00 | 99 | 992.1 |
| 20260507092004 | 3 | 288 | 0.0 | 0.0 | 0.00 | 0.25 | 0.00 | 99 | 992.1 |
| 20260507091007 | 3 | 288 | 0.0 | 0.0 | 0.00 | 0.25 | 0.00 | 99 | 992.0 |
| 20260507090005 | 3 | 288 | 0.0 | 0.0 | 0.00 | 0.28 | 0.00 | 99 | 992.3 |
| 20260507085007 | 3 | 288 | 0.0 | 0.0 | 0.00 | 0.30 | 0.00 | 99 | 992.3 |
| 20260507083005 | 3 | 288 | 0.0 | 0.0 | 0.00 | 0.36 | 0.00 | 99 | 992.3 |
| 20260507082004 | 3 | 288 | 0.0 | 0.0 | 0.00 | 0.38 | 0.00 | 99 | 992.1 |
| 20260507080004 | 3 | 288 | 0.0 | 0.0 | 0.00 | 0.43 | 0.00 | 99 | 992.2 |
| 20260507075007 | 3 | 288 | 0.0 | 0.0 | 0.00 | 0.46 | 0.00 | 98 | 992.2 |
| 20260507074004 | 3 | 288 | 0.0 | 0.0 | 0.00 | 0.48 | 0.00 | 98 | 992.1 |
| 20260507073005 | 3 | 288 | 0.0 | 0.0 | 0.00 | 0.51 | 0.00 | 98 | 992.1 |
| 20260507072004 | 3 | 288 | 0.0 | 0.0 | 0.00 | 0.53 | 0.00 | 98 | 992.0 |
| 20260507070008 | 4 | 288 | 0.0 | 0.0 | 0.00 | 0.56 | 0.00 | 98 | 992.0 |
| 20260507065004 | 4 | 288 | 0.0 | 0.0 | 0.00 | 0.58 | 0.00 | 97 | 992.1 |
| 20260507064004 | 4 | 288 | 0.0 | 0.0 | 0.00 | 0.58 | 0.00 | 97 | 992.4 |
| 20260507063004 | 5 | 288 | 0.0 | 0.0 | 0.00 | 0.61 | 0.00 | 97 | 992.5 |
| 20260507062004 | 5 | 288 | 0.0 | 0.0 | 0.00 | 0.64 | 0.00 | 97 | 992.5 |
| 20260507061004 | 5 | 288 | 0.0 | 0.0 | 0.00 | 0.64 | 0.00 | 97 | 992.7 |
| 20260507060005 | 5 | 288 | 0.0 | 0.0 | 0.00 | 0.66 | 0.00 | 96 | 992.4 |
| 20260507055005 | 6 | 288 | 0.0 | 0.0 | 0.00 | 0.66 | 0.00 | 96 | 992.6 |
| 20260507054005 | 6 | 288 | 0.0 | 0.0 | 0.00 | 0.69 | 0.00 | 96 | 992.8 |
| 20260507053005 | 6 | 289 | 0.0 | 0.0 | 0.00 | 0.69 | 0.00 | 96 | 992.7 |
| 20260507051004 | 6 | 289 | 0.0 | 0.0 | 0.00 | 0.74 | 0.00 | 95 | 993.0 |
| 20260507045004 | 6 | 278 | 0.0 | 4.8 | 0.00 | 0.86 | 0.00 | 95 | 993.0 |
| 20260507044005 | 6 | 281 | 0.0 | 3.2 | 0.00 | 0.91 | 0.00 | 94 | 993.2 |
| 20260507043004 | 6 | 282 | 0.0 | 3.2 | 0.00 | 0.94 | 0.00 | 94 | 993.1 |
| 20260507042004 | 6 | 279 | 1.6 | 3.2 | 0.00 | 0.99 | 0.00 | 94 | 993.0 |
| 20260507041004 | 6 | 253 | 1.6 | 4.8 | 0.00 | 1.02 | 0.00 | 94 | 993.1 |
| 20260507040005 | 6 | 276 | 1.6 | 1.6 | 0.00 | 1.02 | 0.00 | 93 | 993.0 |
| 20260507035004 | 6 | 280 | 0.0 | 3.2 | 0.00 | 1.02 | 1.02 | 93 | 992.9 |
| 20260507034004 | 6 | 284 | 0.0 | 4.8 | 0.00 | 1.02 | 1.02 | 93 | 993.0 |
| 20260507033005 | 6 | 266 | 1.6 | 3.2 | 0.00 | 1.02 | 1.02 | 93 | 992.9 |
| 20260507032005 | 6 | 267 | 0.0 | 3.2 | 0.00 | 1.02 | 1.02 | 93 | 992.7 |
| 20260507031004 | 6 | 278 | 0.0 | 0.0 | 0.00 | 1.04 | 1.02 | 92 | 993.0 |
| 20260507024004 | 6 | 273 | 1.6 | 1.6 | 0.00 | 1.12 | 1.02 | 92 | 993.0 |
| 20260507023004 | 6 | 281 | 0.0 | 0.0 | 0.00 | 1.14 | 1.02 | 92 | 992.9 |
| 20260507021004 | 6 | 274 | 1.6 | 3.2 | 0.00 | 1.19 | 1.02 | 91 | 993.1 |
| 20260507020004 | 6 | 278 | 1.6 | 3.2 | 0.00 | 1.19 | 1.02 | 92 | 993.2 |
| 20260507015007 | 6 | 282 | 0.0 | 3.2 | 0.00 | 1.22 | 1.02 | 92 | 993.3 |
| 20260507014004 | 6 | 280 | 1.6 | 3.2 | 0.00 | 1.24 | 1.02 | 92 | 993.6 |
| 20260507013004 | 6 | 281 | 0.0 | 1.6 | 0.00 | 1.24 | 1.02 | 92 | 993.2 |
| 20260507012004 | 6 | 287 | 0.0 | 0.0 | 0.00 | 1.24 | 1.02 | 92 | 993.2 |
| 20260507010004 | 6 | 287 | 0.0 | 0.0 | 0.00 | 1.30 | 1.02 | 92 | 992.8 |
| 20260507005004 | 6 | 287 | 0.0 | 0.0 | 0.00 | 1.32 | 1.02 | 92 | 992.9 |
| 20260507004004 | 6 | 287 | 0.0 | 0.0 | 0.00 | 1.37 | 1.02 | 92 | 992.7 |
| 20260507003004 | 6 | 293 | 0.0 | 0.0 | 0.00 | 1.42 | 1.02 | 92 | 992.6 |
| 20260507002004 | 6 | 293 | 0.0 | 0.0 | 0.00 | 1.50 | 1.02 | 92 | 992.4 |
| 20260507001004 | 6 | 293 | 0.0 | 0.0 | 0.00 | 1.57 | 1.02 | 92 | 992.3 |
| 20260507000004 | 6 | 293 | 0.0 | 0.0 | 0.00 | 1.65 | 1.02 | 92 | 992.4 |
| 20260506235004 | 6 | 292 | 0.0 | 1.6 | 0.00 | 1.75 | 1.02 | 92 | 992.3 |
| 20260506234004 | 6 | 307 | 0.0 | 0.0 | 0.00 | 1.85 | 1.02 | 92 | 992.2 |
| 20260506233004 | 6 | 307 | 0.0 | 3.2 | 0.00 | 1.91 | 1.02 | 91 | 992.1 |
| 20260506232004 | 6 | 288 | 0.0 | 3.2 | 0.00 | 1.93 | 1.02 | 91 | 992.2 |
| 20260506230004 | 6 | 284 | 1.6 | 1.6 | 0.00 | 1.98 | 1.02 | 93 | 992.0 |
| 20260506223005 | 6 | 293 | 1.6 | 8.0 | 0.00 | 2.08 | 1.02 | 95 | 991.5 |
| 20260506222004 | 6 | 286 | 1.6 | 8.0 | 0.00 | 2.11 | 1.02 | 96 | 991.4 |
| 20260506221004 | 6 | 290 | 1.6 | 4.8 | 0.00 | 2.16 | 1.02 | 96 | 991.3 |
| 20260506220004 | 6 | 291 | 1.6 | 8.0 | 0.00 | 2.21 | 1.02 | 97 | 991.1 |
| 20260506215006 | 6 | 289 | 3.2 | 9.7 | 0.00 | 2.24 | 1.02 | 97 | 991.3 |
| 20260506211005 | 6 | 270 | 3.2 | 11.3 | 0.00 | 2.49 | 1.02 | 97 | 990.7 |
| 20260506210004 | 6 | 289 | 3.2 | 12.9 | 0.00 | 2.54 | 1.02 | 96 | 990.6 |
| 20260506205004 | 6 | 257 | 3.2 | 19.3 | 0.00 | 2.59 | 1.02 | 95 | 990.7 |
| 20260506204004 | 7 | 242 | 8.0 | 20.9 | 0.00 | 2.62 | 1.02 | 93 | 990.2 |
| 20260506203004 | 8 | 237 | 9.7 | 20.9 | 0.00 | 2.62 | 1.02 | 90 | 990.2 |
| 20260506202005 | 10 | 233 | 9.7 | 19.3 | 0.00 | 2.62 | 1.02 | 84 | 989.9 |
| 20260506201004 | 10 | 166 | 4.8 | 20.9 | 0.00 | 2.62 | 1.02 | 82 | 989.9 |
| 20260506200004 | 10 | 216 | 8.0 | 16.1 | 0.00 | 2.62 | 1.02 | 82 | 989.9 |
| 20260506195004 | 10 | 213 | 4.8 | 9.7 | 0.00 | 2.62 | 1.02 | 83 | 989.5 |
| 20260506194004 | 11 | 244 | 4.8 | 14.5 | 0.00 | 2.62 | 1.02 | 82 | 989.7 |
| 20260506193004 | 11 | 238 | 4.8 | 9.7 | 0.00 | 2.62 | 1.02 | 83 | 989.6 |
| 20260506192005 | 10 | 259 | 1.6 | 8.0 | 0.00 | 2.62 | 1.02 | 86 | 989.7 |
| 20260506191006 | 10 | 265 | 1.6 | 11.3 | 0.00 | 2.62 | 1.02 | 86 | 989.7 |
| 20260506190005 | 10 | 256 | 1.6 | 4.8 | 0.00 | 2.62 | 1.02 | 84 | 989.7 |
| 20260506185005 | 10 | 263 | 1.6 | 3.2 | 0.00 | 2.62 | 1.02 | 82 | 989.6 |
| 20260506184005 | 11 | 289 | 0.0 | 1.6 | 0.00 | 2.62 | 1.02 | 82 | 989.6 |
| 20260506183006 | 11 | 290 | 0.0 | 3.2 | 0.00 | 2.62 | 1.02 | 82 | 989.3 |
| 20260506182004 | 11 | 286 | 0.0 | 0.0 | 0.00 | 2.62 | 1.02 | 84 | 989.4 |
| 20260506175004 | 10 | 293 | 0.0 | 3.2 | 0.00 | 2.62 | 1.02 | 85 | 989.6 |
| 20260506173004 | 10 | 285 | 0.0 | 1.6 | 0.00 | 2.62 | 1.02 | 90 | 989.6 |
| 20260506172007 | 9 | 284 | 0.0 | 1.6 | 0.00 | 2.62 | 1.02 | 92 | 989.8 |
| 20260506171004 | 8 | 287 | 0.0 | 1.6 | 0.00 | 2.62 | 1.02 | 94 | 989.9 |
| 20260506170005 | 8 | 323 | 0.0 | 1.6 | 0.00 | 2.62 | 1.02 | 96 | 989.8 |
| 20260506165004 | 8 | 314 | 1.6 | 3.2 | 0.00 | 2.62 | 1.02 | 97 | 989.5 |
| 20260506164004 | 8 | 321 | 0.0 | 3.2 | 0.00 | 2.62 | 1.02 | 97 | 989.7 |
| 20260506163004 | 8 | 302 | 0.0 | 4.8 | 0.00 | 2.62 | 1.02 | 98 | 989.4 |
| 20260506162004 | 8 | 318 | 0.0 | 3.2 | 0.00 | 2.62 | 1.02 | 98 | 989.3 |
| 20260506160005 | 8 | 316 | 0.0 | 1.6 | 0.00 | 2.62 | 1.02 | 99 | 989.7 |
| 20260506154006 | 7 | 316 | 0.0 | 1.6 | 0.00 | 2.62 | 1.02 | 99 | 989.6 |
| 20260506153004 | 7 | 316 | 0.0 | 3.2 | 0.00 | 2.62 | 1.02 | 99 | 989.4 |
| 20260506152004 | 8 | 317 | 1.6 | 3.2 | 0.00 | 2.62 | 1.02 | 99 | 989.3 |
| 20260506151004 | 7 | 326 | 1.6 | 4.8 | 0.00 | 2.62 | 1.02 | 99 | 989.3 |
| 20260506150004 | 7 | 319 | 1.6 | 3.2 | 0.00 | 2.62 | 1.02 | 99 | 989.4 |